Location: Cosy Dell
(34.2789°N, 117.4537°W)
Time: 20:47:43
(UTC+00:00)

NOSS 0 Rocket - Pass Details

Date: 14 July 2020
Orbit: 934 x 955 km, 70.0° (Epoch: 13 August)

Event Time Altitude Azimuth Distance (km) Brightness Sun altitude
Rises 03:32:26 0° 182° (S) 3,572 6.7 -6.1°
Reaches altitude 10° 03:35:03 10° 176° (S) 2,633 5.9 -6.6°
Maximum altitude 03:40:46 44° 106° (ESE) 1,274 4.2 -7.6°
Drops below altitude 10° 03:46:33 10° 36° (NE) 2,656 6.3 -8.6°
Sets 03:49:11 0° 30° (NNE) 3,606 7.0 -9.1°
